[[{"header":{"parameterUnit":"m.s-1","parameterCategory":1,"la1":30.2991,"la2":30.254,"lo1":-89.0895,"lo2":-89.0444,"dy":0.0017,"dx":0.0017,"nx":28,"ny":28,"refTime":"2026-02-06T09:00:00:Z","depth":0,"parameterNumber":2,"parameterNumberName":"U-component_of_WINDS"},"data":[0,0,0,0,0,0,0,0,0,0,0,0,0,0,0,0,0,0,0,0,0,0,0,0,0,0,0,0,0,0,0,0,0,0,0,0,0,0,0,0,0,0,0,0,0,0,0,0,0,0,0,0,0,0,0,0,0,0,3.7091,3.7092,0,3.7182,3.7183,3.7184,3.7131,3.7128,3.7126,3.7123,3.7221,3.7226,3.7231,0,0,0,0,0,0,0,0,0,0,0,0,0,3.6877,3.6882,3.7091,3.7092,3.7093,3.7182,3.7183,3.7184,3.7132,3.7128,3.7125,3.7122,3.722,3.7225,3.7231,0,0,0,0,0,0,0,0,0,0,0,0,0,3.697,3.6883,3.7091,3.7077,3.7077,3.7182,3.7183,3.7185,3.7132,3.7128,3.7124,3.7121,3.7218,3.7225,3.7232,3.7357,0,0,3.7255,3.7259,0,0,0,0,0,0,0,0,3.6964,3.6978,3.7078,3.7078,3.7078,3.7141,3.7144,3.7243,3.7133,3.7111,3.7123,3.7119,3.7198,3.7207,3.7233,3.7361,3.7365,3.7256,3.7261,3.7264,3.7266,0,0,0,0,0,0,0,3.6958,3.6973,3.7127,3.708,3.708,3.7069,3.7078,3.7162,3.7176,3.7113,3.7109,3.7121,3.7197,3.7226,3.7235,3.7367,3.7256,3.7262,3.7267,3.727,3.7607,3.7611,0,0,0,0,0,0,3.6952,3.6968,3.7124,3.713,3.701,3.7076,3.7086,3.7125,3.7174,3.7178,3.7124,3.7118,3.7215,3.7226,3.7238,3.7389,3.7264,3.7271,3.7275,3.7602,3.7608,3.7612,0,0,0,0,0,0,3.6948,3.6966,3.712,3.7048,3.7067,3.7084,3.7128,3.7129,3.7157,3.7183,3.7185,3.715,3.7212,3.7227,3.7328,3.7392,3.7274,3.7281,3.7597,3.7604,3.761,3.7691,0,0,0,0,0,0,3.6942,3.6965,3.701,3.7049,3.7071,3.7207,3.7132,3.7133,3.7169,3.7162,3.7208,3.7211,3.721,3.7317,3.7336,3.74,3.7287,3.7591,3.76,3.7608,3.7683,3.77,3.7714,0,0,0,0,0,3.6934,3.703,3.7013,3.7032,3.7128,3.7211,3.7223,3.7219,3.7175,3.7222,3.7239,3.721,3.7382,3.7328,3.7348,3.7416,3.7587,3.7598,3.7607,3.7676,3.7697,3.7714,0,0,0,0,0,0,3.6998,3.7034,3.7016,3.7127,3.7166,3.7202,3.7261,3.724,3.7293,3.7285,3.7278,3.7289,3.7395,3.7415,3.7355,3.7541,3.7478,3.7493,3.7524,3.7543,3.7559,3.7552,3.7293,0,0,0,0,0,3.7025,3.7088,3.7117,3.7212,3.7232,3.7244,3.7279,3.7273,3.7314,3.733,3.7355,3.7397,3.7461,3.7503,3.7563,3.7686,3.7697,3.7743,3.7759,3.7771,3.7784,3.7855,3.7876,3.7645,3.7645,3.7645,0,0,3.7081,3.7109,3.7149,3.7225,3.7255,3.7323,3.7258,3.7331,3.7382,3.7342,3.7439,3.7459,3.7506,3.762,3.7671,3.764,3.7851,3.7784,3.7794,3.78,3.7867,3.7889,3.7909,3.7652,3.7651,3.765,0,0,3.7218,3.7244,3.7328,3.736,3.7405,3.7413,3.7433,3.7473,3.7485,3.7582,3.7554,3.7616,3.7725,3.7761,3.7794,3.795,3.7926,3.797,3.8052,3.812,3.8139,3.8155,3.8213,3.8234,3.7982,3.7982,3.7983,0,3.7283,3.7381,3.7374,3.745,3.7486,3.7453,3.754,3.7571,3.7635,3.7662,3.7627,3.7766,3.7795,3.7918,3.7956,3.7983,3.8009,3.7964,3.8136,3.8152,3.8167,3.8223,3.8245,3.7988,3.7987,3.7986,3.7986,0,3.746,3.7529,3.7592,3.7654,3.7697,3.7778,3.7786,3.7831,3.7822,3.7834,3.7936,3.7971,3.8039,3.8067,3.8059,3.8191,3.8171,3.8136,3.8073,3.8195,3.8247,3.8268,3.7995,3.7993,3.7992,3.799,0,0,3.7638,3.7697,3.772,3.775,3.78,3.7855,3.7936,3.8002,3.8043,3.8089,3.8159,3.8254,3.8224,3.8261,3.8257,3.8317,3.8442,3.8275,3.8276,3.8307,3.8594,3.862,3.8645,3.8427,3.8431,3.8434,3.8591,0,3.778,3.792,3.7918,3.8049,3.8115,3.8087,3.8159,3.8199,3.8214,3.8274,3.8291,3.836,3.8312,3.8335,3.8394,3.8414,3.85,3.8403,3.8495,3.8498,3.8484,3.8671,3.8699,3.8845,3.8611,3.8614,3.8616,0,3.7963,3.8016,3.8154,3.8198,3.8225,3.8289,3.8352,3.8409,3.8456,3.8463,3.8506,3.8494,3.858,3.8515,3.8636,3.857,3.8608,3.8624,3.863,3.8639,3.8565,3.8687,3.8891,3.8913,3.8648,3.8646,3.8643,0,3.8081,3.8187,3.8284,3.831,3.8363,3.841,3.8434,3.8477,3.8518,3.8574,3.8601,3.8666,3.8703,3.8755,3.8762,3.8713,3.8885,3.8819,3.8895,3.8895,3.8932,3.893,3.9147,3.8955,3.8955,3.8955,3.8954,0,3.824,3.8327,3.8339,3.8398,3.8496,3.8494,3.8591,3.8612,3.8651,3.8717,3.8697,3.8759,3.8764,3.883,3.8836,3.8937,3.8953,3.8963,3.8964,3.8966,3.8965,3.8991,3.8981,3.896,3.8959,3.8958,3.8957,0,3.8389,3.84,3.8504,3.8547,3.856,3.863,3.8668,3.8727,3.8741,3.8824,3.8844,3.8867,3.8943,3.8956,3.9045,3.905,3.9172,3.9161,3.9155,3.9154,3.9231,3.9224,3.9472,3.9506,3.9292,3.9294,3.9295,0,3.8489,3.8555,3.8606,3.8648,3.8675,3.8743,3.8786,3.8788,3.8834,3.8894,3.8947,3.9021,3.908,3.9205,3.9231,3.9301,3.9293,3.9375,3.9303,3.9304,3.9297,3.9293,3.9301,3.9389,3.9391,3.9393,3.9395,0,3.8669,3.8672,3.8732,3.8797,3.8848,3.8899,3.8948,3.8984,3.8993,3.9046,3.9124,3.917,3.9263,3.9338,3.9408,3.9436,3.9419,3.9418,3.9439,3.9442,3.9436,3.9443,3.9195,3.9412,3.941,3.9409,3.9408,3.9407,3.8797,3.8856,3.8901,3.8971,3.9008,3.9055,3.9113,3.9135,3.92,3.9274,3.9273,3.9359,3.9409,3.9501,3.9534,3.9604,3.9577,3.9608,3.9616,3.9624,3.9633,3.9425,3.9616,3.9616,3.9615,3.9615,3.9615,0,3.8977,3.9005,3.907,3.9139,3.9195,3.9173,3.9226,3.9275,3.9351,3.9398,3.9458,3.9549,3.9623,3.9656,3.973,3.978,3.9774,3.9799,3.9796,3.9804,3.9651,3.9625,3.9803,3.9803,3.9803,3.9803,3.9803,3.9803,3.9077,3.9176,3.9185,3.9304,3.9332,3.9416,3.9449,3.9493,3.9531,3.9634,3.9695,3.9716,3.9759,3.9836,3.9905,3.9913,3.9942,3.9971,3.9976,3.9833,3.9814,3.9796,3.9772,3.9977,3.9977,4.0123,4.0124,4.0125]},{"header":{"parameterUnit":"m.s-1","parameterCategory":1,"la1":30.2991,"la2":30.254,"lo1":-89.0895,"lo2":-89.0444,"dy":0.0017,"dx":0.0017,"nx":28,"ny":28,"refTime":"2026-02-06T09:00:00:Z","depth":0,"parameterNumber":3,"parameterNumberName":"V-component_of_WINDS"},"data":[0,0,0,0,0,0,0,0,0,0,0,0,0,0,0,0,0,0,0,0,0,0,0,0,0,0,0,0,0,0,0,0,0,0,0,0,0,0,0,0,0,0,0,0,0,0,0,0,0,0,0,0,0,0,0,0,0,0,0.4869,0.487,0,0.4956,0.4957,0.4958,0.4973,0.4973,0.4972,0.4971,0.5061,0.5064,0.5067,0,0,0,0,0,0,0,0,0,0,0,0,0,0.4716,0.4719,0.4869,0.487,0.4872,0.4956,0.4957,0.4959,0.4974,0.4973,0.4972,0.4971,0.506,0.5063,0.5067,0,0,0,0,0,0,0,0,0,0,0,0,0,0.4791,0.472,0.4869,0.4889,0.4892,0.4956,0.4957,0.4959,0.4974,0.4973,0.4972,0.4971,0.5059,0.5063,0.5068,0.5118,0,0,0.5082,0.5084,0,0,0,0,0,0,0,0,0.4787,0.4797,0.4885,0.4888,0.4891,0.4953,0.4936,0.5012,0.4974,0.4943,0.4971,0.497,0.5026,0.5033,0.5052,0.5122,0.5126,0.5082,0.5085,0.5087,0.5088,0,0,0,0,0,0,0,0.4782,0.4793,0.4904,0.4886,0.489,0.4894,0.4903,0.4951,0.4989,0.4945,0.4947,0.4957,0.5027,0.5047,0.5054,0.5127,0.5082,0.5086,0.5089,0.5091,0.5242,0.5244,0,0,0,0,0,0,0.4773,0.4789,0.4901,0.4906,0.4835,0.4897,0.4908,0.4934,0.4989,0.4996,0.4958,0.4957,0.504,0.5049,0.5057,0.512,0.5087,0.5091,0.5094,0.5241,0.5243,0.5244,0,0,0,0,0,0,0.4769,0.4783,0.4898,0.4848,0.4863,0.4901,0.4931,0.4936,0.4957,0.4998,0.5005,0.4971,0.504,0.5051,0.5103,0.5123,0.5093,0.5097,0.524,0.5242,0.5243,0.5244,0,0,0,0,0,0,0.4765,0.4781,0.4801,0.4848,0.4865,0.4942,0.4932,0.4939,0.4964,0.4965,0.5013,0.5019,0.504,0.5096,0.5107,0.5129,0.5101,0.5238,0.524,0.5243,0.5243,0.5246,0.5249,0,0,0,0,0,0.476,0.4798,0.4802,0.4816,0.4891,0.4943,0.4953,0.4975,0.4966,0.4986,0.5012,0.5018,0.5118,0.5101,0.5114,0.5137,0.5237,0.524,0.5243,0.5241,0.5245,0.5249,0,0,0,0,0,0,0.4753,0.4805,0.481,0.4865,0.4899,0.4945,0.4971,0.4978,0.5016,0.5015,0.5041,0.5051,0.5102,0.5124,0.5104,0.5188,0.5177,0.5183,0.5172,0.5176,0.5179,0.5173,0.5105,0,0,0,0,0,0.4758,0.4796,0.4839,0.4883,0.49,0.4933,0.4956,0.497,0.5007,0.5021,0.5052,0.5087,0.5127,0.5152,0.5191,0.5246,0.5256,0.5268,0.5271,0.5273,0.5278,0.5308,0.5314,0.5253,0.5253,0.5253,0,0,0.4769,0.4802,0.4824,0.4883,0.4911,0.495,0.4945,0.4986,0.5015,0.5028,0.5079,0.5102,0.5143,0.5196,0.5221,0.5217,0.5297,0.5277,0.5279,0.5282,0.5312,0.5317,0.5322,0.5255,0.5255,0.5255,0,0,0.4808,0.4837,0.4877,0.4905,0.4947,0.4969,0.4978,0.5023,0.5039,0.509,0.51,0.5134,0.5202,0.5231,0.5254,0.5303,0.5309,0.5315,0.5332,0.536,0.5365,0.537,0.5387,0.5393,0.5319,0.5319,0.5319,0,0.4816,0.4875,0.4896,0.4937,0.4962,0.4975,0.5016,0.5042,0.5095,0.5112,0.5106,0.5191,0.522,0.5279,0.5291,0.531,0.5321,0.531,0.5363,0.5367,0.5372,0.5388,0.5395,0.532,0.532,0.532,0.532,0,0.4882,0.4923,0.495,0.5,0.5029,0.5069,0.5097,0.5123,0.5134,0.5155,0.5206,0.5241,0.5287,0.5302,0.5313,0.5363,0.5359,0.5357,0.5347,0.5377,0.5394,0.54,0.532,0.532,0.532,0.532,0,0,0.4922,0.4983,0.4992,0.5015,0.5062,0.5094,0.5134,0.5179,0.52,0.5236,0.5271,0.5327,0.5325,0.5352,0.5366,0.5392,0.5428,0.5387,0.5388,0.5394,0.5484,0.5486,0.5493,0.5432,0.5433,0.5434,0.5481,0,0.4967,0.504,0.506,0.5121,0.5158,0.517,0.5205,0.5238,0.5259,0.5293,0.5316,0.5356,0.5351,0.5367,0.5392,0.5418,0.5446,0.5415,0.5464,0.5466,0.5454,0.5501,0.5503,0.5546,0.5487,0.5488,0.5489,0,0.503,0.5066,0.5131,0.5173,0.5189,0.5221,0.5262,0.5295,0.5332,0.5345,0.5374,0.5386,0.5428,0.5414,0.5473,0.5451,0.5472,0.5487,0.5489,0.5496,0.548,0.5509,0.556,0.5566,0.5499,0.5499,0.5498,0,0.5052,0.5117,0.5164,0.5183,0.5233,0.5255,0.5277,0.5312,0.5337,0.5374,0.539,0.5431,0.5453,0.5484,0.5506,0.5494,0.5563,0.5551,0.5575,0.5574,0.559,0.5589,0.5645,0.5602,0.5602,0.5602,0.5602,0,0.5101,0.514,0.5175,0.5204,0.5248,0.5271,0.5314,0.5336,0.5367,0.5401,0.5413,0.5444,0.5472,0.5506,0.5524,0.5569,0.5579,0.5591,0.5595,0.559,0.5589,0.5605,0.5603,0.5604,0.5603,0.5603,0.5603,0,0.5133,0.5158,0.5211,0.5253,0.5265,0.5295,0.5332,0.536,0.5381,0.5423,0.5434,0.5466,0.5507,0.5532,0.5585,0.5596,0.5647,0.5649,0.5634,0.5636,0.5659,0.5656,0.5729,0.5739,0.5688,0.5689,0.5689,0,0.5163,0.5194,0.5239,0.5262,0.5284,0.5321,0.5347,0.5369,0.5395,0.5439,0.5462,0.5504,0.5539,0.5604,0.5632,0.5672,0.5676,0.5698,0.5682,0.5676,0.5676,0.5675,0.5678,0.5701,0.5702,0.5702,0.5702,0,0.5213,0.5224,0.526,0.53,0.533,0.5363,0.5395,0.5413,0.5442,0.547,0.5512,0.5539,0.5592,0.5633,0.5675,0.5697,0.5704,0.5707,0.5715,0.571,0.57,0.5706,0.5642,0.5706,0.5705,0.5705,0.5705,0.5705,0.5246,0.5273,0.5309,0.5349,0.5376,0.5406,0.5434,0.5458,0.5493,0.5538,0.5549,0.5593,0.5628,0.5685,0.5708,0.5743,0.5739,0.575,0.5753,0.5756,0.5757,0.5694,0.575,0.575,0.575,0.575,0.575,0,0.5297,0.532,0.5356,0.5401,0.5432,0.5436,0.5472,0.5497,0.5536,0.5568,0.5602,0.565,0.5689,0.572,0.5761,0.5782,0.5787,0.5792,0.5791,0.5796,0.5757,0.5747,0.5788,0.5788,0.5788,0.5788,0.5788,0.5788,0.5327,0.5374,0.5388,0.5448,0.5471,0.5514,0.5535,0.5562,0.5588,0.5641,0.5674,0.5693,0.5724,0.5767,0.5804,0.5811,0.5826,0.5831,0.5839,0.5803,0.5799,0.5795,0.5785,0.5834,0.5834,0.5875,0.5876,0.5876]}]]